Regional Weather Roundup
Issued by NWS

Home | Current Version | Previous Version | Graphics & Text | Print | Product List | Glossary On
Versions: 1 2 3 4 5 6 7 8 9 10 11 12 13 14 15 16 17 18 19 20 21 22 23 24 25 26 27 28 29 30 31 32 33 34 35 36 37 38 39 40 41 42 43 44 45 46 47 48 49 50
000
ASUS43 KMPX 170001
RWRMN
WEATHER ROUNDUP FOR MINNESOTA
NATIONAL WEATHER SERVICE TWIN CITIES/CHANHASSEN MN
600 PM CST THU NOV 16 2017


NOTE: "FAIR" INDICATES FEW OR NO CLOUDS BELOW 12,000 FEET WITH NO
SIGNIFICANT WEATHER AND/OR OBSTRUCTIONS TO VISIBILITY. N/A MEANS
CURRENT SKY AND/OR WEATHER CONDITIONS ARE NOT AVAILABLE.

MNZ060>063-068>070-170100-
   Twin Cities Metro

CITY           SKY/WX    TMP DP  RH WIND       PRES   REMARKS
TWIN CITIES    CLOUDY    32  26  78 SE14      30.08R WCI  22
6HR MIN TEMP:  30; 6HR MAX TEMP:  33;

ST PAUL        CLOUDY    32  25  75 SE14      30.10S WCI  22
CRYSTAL        CLOUDY    32  23  69 SE12G20   30.05S WCI  23
BLAINE         CLOUDY    34  27  75 SE13G18   30.06S WCI  25
LAKEVILLE      CLOUDY    30  27  86 SE8       30.07S WCI  23
EDEN PRAIRIE   CLOUDY    33  26  75 SE14      30.06S WCI  23
6HR MIN TEMP:  31; 6HR MAX TEMP:  33;

SOUTH ST PAUL  CLOUDY    32  26  77 SE8       30.09R WCI  25
LAKE ELMO      CLOUDY    32  27  80 SE8       30.10R WCI  25
$$
MNZ001>005-007-008-013>017-022>024-027-028-170100-
   Northwest Minnesota

CITY           SKY/WX    TMP DP  RH WIND       PRES   REMARKS
BEMIDJI        CLOUDY    27  21  78 SE21G31   29.90R WCI  13
HALLOCK        CLOUDY    28  25  86 CALM      29.74F
ROSEAU         CLOUDY    27  21  80 SE17G24   29.83F WCI  14
WARROAD        CLOUDY    25  21  86 SE16G23   29.88S WCI  12
CROOKSTON      CLOUDY    30  25  80 S21       29.78F WCI  17
FOSSTON        CLOUDY    27  21  80 SE17G29   29.81F WCI  14
DETROIT LAKES  CLOUDY    30  27  86 SE22G29   29.84F WCI  17
MOORHEAD       CLOUDY    32  25  74 SE22G31   29.80S WCI  19
PARK RAPIDS    CLOUDY    28  21  75 SE17G26   29.90F WCI  16
MAHNOMEN       FAIR      29  22  75 SE22G30   29.82S WCI  16
$$
MNZ006-009>011-018-025>026-170100-
   North Central Minnesota

CITY           SKY/WX    TMP DP  RH WIND       PRES   REMARKS
BAUDETTE       CLOUDY    25  20  81 SE18G29   29.91F WCI  11
FLAG ISLAND    CLOUDY    23  18  80 SE21G29   29.89F WCI   8
INTL FALLS     CLOUDY    24  19  81 SE16      30.00F WCI  11
6HR MIN TEMP:  21; 6HR MAX TEMP:  24;

WASKISH        CLOUDY    27  21  80 SE15G22   29.91F WCI  15
BIG FORK       CLOUDY    27  21  80 SE9G17    29.98F WCI  17
LONGVILLE      CLOUDY    27  21  80 SE8G18    29.96F WCI  18
GRAND RAPIDS   CLOUDY    25  21  85 SE15G22   30.02F WCI  13
CRANE LAKE     CLOUDY    25  21  86 SE6       30.07F WCI  18
ORR            CLOUDY    25  19  80 SE15G22   29.99F WCI  12
COOK           CLOUDY    25  21  86 SE9G23    30.02F WCI  15
WALKER         CLOUDY    27  21  78 SE12G22   29.93F WCI  17
$$
MNZ012-019>021-037-170100-
   Northeast Minnesota

CITY           SKY/WX    TMP DP  RH WIND       PRES   REMARKS
DULUTH         CLOUDY    26  22  84 SE18      30.05F WCI  13
6HR MIN TEMP:  22; 6HR MAX TEMP:  26; 6HR PCP: TRACE;

ELY            CLOUDY    25  21  86 SE15      30.07F WCI  12
HIBBING        CLOUDY    25  21  85 SE15      30.03F WCI  13
EVELETH        CLOUDY    25  21  86 SE14G24   30.05F WCI  13
DULUTH HARBOR  CLOUDY    30  27  86 E17       30.13F WCI  18
TWO HARBORS    CLOUDY    30  27  86 E10G16    30.10F WCI  21
SILVER BAY     CLOUDY    28  27  93 E9G16     30.14S WCI  20
GRAND MARAIS     N/A     28  22  78 E14G24    30.22F WCI  17
G MARAIS ARPRT CLOUDY    19  16  86 E8        30.13F WCI   9
$$
MNZ029>031-032-039>041-046>048-054>057-064-170100-
   West Central Minnesota

CITY           SKY/WX    TMP DP  RH WIND       PRES   REMARKS
FERGUS FALLS   CLOUDY    30  25  80 SE20      29.87S WCI  18
WHEATON        CLOUDY    28  25  86 SE24      29.84F WCI  14
MORRIS         CLOUDY    28  25  86 SE24G32   29.86F WCI  14
ALEXANDRIA     CLOUDY    29  25  85 SE25G32   29.90F WCI  14
ELBOW LAKE     FAIR      29  25  86 SE20G26   29.85F WCI  16
WADENA         CLOUDY    27  21  80 SE21G26   29.90F WCI  13
GLENWOOD       CLOUDY    28  27  93 SE18G26   29.91F WCI  16
APPLETON       CLOUDY    30  25  80 SE16G25   29.87F WCI  19
BENSON         CLOUDY    30  27  86 S16G25    29.90F WCI  19
ORTONVILLE     CLOUDY    28  25  86 MISG      29.84F
MADISON        CLOUDY    32  27  80 SE22G28   29.86F WCI  19
WILLMAR        FAIR      30  28  93 SE23G29   29.94F WCI  17
$$
MNZ033>034-036-042>043-049>051-058-059-170100-
   Central Minnesota

CITY           SKY/WX    TMP DP  RH WIND       PRES   REMARKS
ST CLOUD       CLOUDY    30  24  78 SE12      30.01F WCI  20
6HR MIN TEMP:  28; 6HR MAX TEMP:  30;

SAUK CENTRE    CLOUDY    28  25  87 SE15G23   29.95F WCI  17
PAYNESVILLE    CLOUDY    30  28  90 SE16G25   29.97S WCI  19
AITKIN         CLOUDY    27  21  80 SE13      30.00F WCI  16
PINE RIVER     CLOUDY    27  21  80 SE15G21   30.00F WCI  15
BRAINERD       CLOUDY    29  21  72 SE10G20   29.99F WCI  20
STAPLES        CLOUDY    27  21  80 SE8G21    29.94F WCI  18
LONG PRAIRIE   MOCLDY    28  25  86 E14G21    29.95F WCI  17
LITTLE FALLS   CLOUDY    30  19  64 SE15G22   29.99F WCI  19
LITCHFIELD     CLOUDY    30  28  93 SE15G23   29.99F WCI  19
BUFFALO        CLOUDY    32  26  78 E10       30.05S WCI  23
MAPLE LAKE     CLOUDY    32  28  86 SE12      30.03F WCI  23
HUTCHINSON     CLOUDY    31  28  86 SE14G21   30.00F WCI  21
$$
MNZ037-044-045-052-053-170100-
   East Central Minnesota

CITY           SKY/WX    TMP DP  RH WIND       PRES   REMARKS
PRINCETON      CLOUDY    30  25  80 E10       30.05S WCI  21
MORA           CLOUDY    32  25  74 SE7       30.09R WCI  26
CAMBRIDGE      CLOUDY    34  23  64 SE8       30.07R WCI  27
RUSH CITY      CLOUDY    31  24  73 SE7       30.08R WCI  24
MOOSE LAKE     CLOUDY    30  23  74 SE6       30.05F WCI  24
HINCKLEY       CLOUDY    30  25  80 SE9G16    30.08S WCI  22
CLOQUET        CLOUDY    27  21  80 SE10G16   30.06F WCI  17
MCGREGOR       CLOUDY    28  23  80 SE14      30.04S WCI  17
$$
MNZ071>073-080-081-089-090-097-098-170100-
   Southwest Minnesota

CITY           SKY/WX    TMP DP  RH WIND       PRES   REMARKS
MONTEVIDEO     CLOUDY    28  27  93 S23       29.88F WCI  14
GRANITE FALLS  CLOUDY    31  28  86 SE18G25   29.92F WCI  19
CANBY          CLOUDY    32  27  81 E17       29.85F WCI  21
MARSHALL       CLOUDY    30  25  81 SE18G24   29.88F WCI  18
REDWOOD FALLS  CLOUDY    30  25  81 SE18      29.94F WCI  18
OLIVIA         CLOUDY    32  28  86 SE15G25   29.95S WCI  22
PIPESTONE      CLOUDY    30  25  80 S17G28    29.83R WCI  18
WINDOM           N/A     30  18  59 SE18      29.94S WCI  18
WORTHINGTON    CLOUDY    29  25  85 SE20      29.91F WCI  16
JACKSON        CLOUDY    30  27  86 SE14      29.96F WCI  20
SLAYTON        CLOUDY    29  26  86 SE22G30   29.87F WCI  16
$$
MNZ065>067-074>077-082>085-091>093-170100-
   South Central Minnesota

CITY           SKY/WX    TMP DP  RH WIND       PRES   REMARKS
MANKATO        CLOUDY    31  27  85 SE17      30.03F WCI  19
NEW ULM        CLOUDY    30  25  80 SE16G24   29.99F WCI  19
ST JAMES       CLOUDY    30  27  86 SE20      29.99F WCI  18
FAIRMONT       CLOUDY    31  27  85 SE15G23   30.00F WCI  20
GLENCOE        CLOUDY    32  28  86 SE15      30.02F WCI  22
FARIBAULT      CLOUDY    32  27  80 SE13      30.06R WCI  22
OWATONNA       CLOUDY    32  27  80 SE14      30.05S WCI  22
WASECA         CLOUDY    32  28  86 SE14G21   30.06S WCI  22
ALBERT LEA     CLOUDY    30  25  80 SE16      30.06S WCI  19
$$
MNZ078>079-086>088-094>096-170100-
   Southeast Minnesota

CITY           SKY/WX    TMP DP  RH WIND       PRES   REMARKS
ROCHESTER      CLOUDY    31  27  85 SE14      30.07F WCI  21
6HR MIN TEMP:  30; 6HR MAX TEMP:  32;

RED WING       CLOUDY    34  23  64 SE20      30.07F WCI  22
STANTON        CLOUDY    33  27  78 SE6       30.07R WCI  28
DODGE CENTER   CLOUDY    30  27  86 SE15      30.06F WCI  19
WINONA         PTCLDY    34  28  80 SE12      30.14F WCI  25
AUSTIN         PTCLDY    30  27  86 S8        30.07F WCI  23
PRESTON        CLOUDY    31  25  79 SE10      30.11F WCI  22
$$
ABBREVIATIONS USED IN REMARKS
   TC - TEMPERATURES IN CELSIUS
  WCI - WIND CHILL INDEX
   HX - HEAT INDEX
  VSB - VISIBILITY
$$




USA.gov is the U.S. government's official web portal to all federal, state and local government web resources and services.